Location: Helsinki
(60.1699°N, 24.9384°E)
Time: 20:14:19
(UTC+02:00)

Transit 4A - Pass Details

Date: 05 November 2020
Orbit: 862 x 982 km, 66.8° (Epoch: 29 November)

Event Time Altitude Azimuth Distance (km) Brightness Sun altitude
Rises 18:36:40 0° 288° (WNW) 3,681 12.4 -17.9°
Reaches altitude 10° 18:39:21 10° 294° (WNW) 2,740 11.4 -18.2°
Maximum altitude 18:45:34 49° 8° (N) 1,257 8.5 -19.0°
Enters shadow 18:48:32 29° 66° (ENE) 1,711 8.8 -19.3°
Drops below altitude 10° 18:51:47 10° 83° (E) 2,733 - -19.7°
Sets 18:54:27 0° 89° (E) 3,671 - -20.1°
